Laramie, WY

4:19 AM MST on December 13, 2017 (GMT -0700)
Laramie Regional

Weather History for KLAR - April, 2012

Change the Weather History Date:

Tuesday, April 10, 2012

  Actual Average Record
Temperature  
Mean Temperature 47 °F 36 °F  
Max Temperature 69 °F 49 °F 71 °F (1960)
Min Temperature 24 °F 23 °F -5 °F (2013)
Degree Days  
Heating Degree Days 18 29  
Month to date heating degree days 227 299  
Since 1 July heating degree days 7200 7534  
Cooling Degree Days 0 0  
Month to date cooling degree days 0 0  
Year to date cooling degree days 0 0  
Moisture  
Dew Point 22 °F    
Average Humidity 48    
Maximum Humidity 86    
Minimum Humidity 10    
Precipitation  
Precipitation 0.00 in 0.03 in 0.30 in (2016)
Month to date precipitation 0.02 0.27  
Year to date precipitation 1.13 1.46  
Sea Level Pressure  
Sea Level Pressure 29.96 in    
Wind  
Wind Speed 9 mph (SE)    
Max Wind Speed 23 mph    
Max Gust Speed 29 mph    
Visibility 10 miles    
Events      
T = Trace of Precipitation, MM = Missing Value Source: NWS Daily Summary

Daily Weather History Graph

Daily Weather History Graph

Search for Another Location

Airport or City:

Trip Planner

Search our weather history database for the weather conditions in past years. The results will help you decide how hot, cold, wet, or windy it might be!

Date:

Astronomy

Apr. 10, 2012 Rise Set
Actual Time 6:30 AM MDT 7:38 PM MDT
Civil Twilight 6:01 AM MDT 8:06 PM MDT
Nautical Twilight 5:28 AM MDT 8:40 PM MDT
Astronomical Twilight 4:52 AM MDT 9:16 PM MDT
Moon No Moon Rise 9:15 AM MDT (4/10)
Length of Visible Light 14h 04m
Length of Day
13h 07m
Waning Gibbous, 79% of the Moon is Illuminated
Apr 10
Waning Gibbous
Apr 13
Last Quarter
Apr 21
New
Apr 29
First Quarter
May 5
Full

Hourly Weather History & Observations

Time (MDT) Temp. Windchill Dew Point Humidity Pressure Visibility Wind Dir Wind Speed Gust Speed Precip Events Conditions
12:53 AM 39.9 °F 30.5 °F 30.9 °F 70% 29.96 in 10.0 mi SSE 19.6 mph 26.5 mph N/A   Clear
1:53 AM 37.9 °F 29.6 °F 30.9 °F 76% 29.96 in 10.0 mi SSE 13.8 mph - N/A   Clear
2:53 AM 37.0 °F 28.9 °F 32.0 °F 82% 29.95 in 10.0 mi South 12.7 mph - N/A   Clear
3:53 AM 33.1 °F 24.9 °F 28.9 °F 85% 29.96 in 10.0 mi South 10.4 mph - N/A   Clear
4:53 AM 30.0 °F 20.5 °F 25.0 °F 82% 29.96 in 10.0 mi South 11.5 mph - N/A   Clear
5:53 AM 26.1 °F 18.4 °F 19.9 °F 78% 30.00 in 10.0 mi SSW 6.9 mph - N/A   Clear
6:53 AM 30.0 °F 23.2 °F 19.9 °F 66% 30.03 in 10.0 mi South 6.9 mph - N/A   Clear
7:53 AM 36.0 °F 33.3 °F 24.1 °F 62% 30.04 in 10.0 mi SE 3.5 mph - N/A   Clear
8:53 AM 46.4 °F - 17.6 °F 32% 30.17 in 10.0 mi Calm Calm - N/A   Clear
9:53 AM 54.0 °F - 21.0 °F 28% 29.96 in 10.0 mi SSE 4.6 mph - N/A   Clear
10:53 AM 62.1 °F - 15.1 °F 16% 29.93 in 10.0 mi Calm Calm - N/A   Clear
11:53 AM 64.9 °F - 10.9 °F 12% 29.90 in 10.0 mi Variable 3.5 mph - N/A   Clear
12:53 PM 66.2 °F - 12.2 °F 12% 30.12 in 10.0 mi NNE 8.1 mph - N/A   Clear
1:53 PM 68.0 °F - 12.9 °F 12% 29.88 in 10.0 mi NNE 11.5 mph - N/A   Clear
2:53 PM 66.9 °F - 9.0 °F 10% 29.87 in 10.0 mi Variable 4.6 mph - N/A   Clear
3:53 PM 66.9 °F - 10.0 °F 11% 29.88 in 10.0 mi NNW 6.9 mph - N/A   Clear
4:53 PM 66.9 °F - 12.0 °F 12% 29.88 in 10.0 mi NNE 6.9 mph - N/A   Clear
5:53 PM 64.9 °F - 21.9 °F 19% 29.91 in 10.0 mi SE 5.8 mph - N/A   Clear
6:53 PM 59.0 °F - 21.0 °F 23% 29.93 in 10.0 mi SSE 13.8 mph - N/A   Clear
7:53 PM 50.0 °F - 19.0 °F 29% 29.96 in 10.0 mi ESE 9.2 mph - N/A   Clear
8:53 PM 50.0 °F - 21.0 °F 32% 29.91 in 10.0 mi ESE 8.1 mph - N/A   Clear
9:53 PM 48.9 °F - 24.1 °F 38% 29.88 in 10.0 mi East 9.2 mph - N/A   Clear
10:53 PM 48.2 °F - 41.0 °F 76% 30.10 in 10.0 mi SE 18.4 mph 23.0 mph N/A   Clear
11:53 PM 46.9 °F - 42.1 °F 83% 29.84 in 10.0 mi South 16.1 mph - N/A   Clear